Fallon NAS, NV

5:34 PM PDT on June 25, 2017 (GMT -0700)
Fallon Naval Air Station

Weather History for KNFL - September, 2013

Change the Weather History Date:

Saturday, September 21, 2013

  Actual Average Record
Temperature  
Mean Temperature 60 °F -  
Max Temperature 73 °F 75 °F 93 °F (2015)
Min Temperature 46 °F 39 °F 29 °F (1968)
Degree Days  
Heating Degree Days 6    
Growing Degree Days 10 (Base 50)    
Moisture  
Dew Point 34 °F    
Average Humidity 46    
Maximum Humidity 83    
Minimum Humidity 17    
Precipitation  
Precipitation 0.10 in - - ()
Sea Level Pressure  
Sea Level Pressure 29.72 in    
Wind  
Wind Speed 5 mph (NNW)    
Max Wind Speed 24 mph    
Max Gust Speed 31 mph    
Visibility 10 miles    
Events Rain    
Averages and records for this station are not official NWS values.
T = Trace of Precipitation, MM = Missing Value Source: NWS Daily Summary

Daily Weather History Graph

Daily Weather History Graph

Search for Another Location

Airport or City:

Trip Planner

Search our weather history database for the weather conditions in past years. The results will help you decide how hot, cold, wet, or windy it might be!

Date:

Astronomy

Sep. 21, 2013 Rise Set
Actual Time 6:41 AM PDT 6:52 PM PDT
Civil Twilight 6:15 AM PDT 7:19 PM PDT
Nautical Twilight 5:43 AM PDT 7:51 PM PDT
Astronomical Twilight 5:11 AM PDT 8:22 PM PDT
Moon 8:07 PM PDT (9/21) 9:04 AM PDT (9/21)
Length of Visible Light 13h 04m
Length of Day
12h 11m
Waning Gibbous, 94% of the Moon is Illuminated
Sep 21
Waning Gibbous
Sep 26
Last Quarter
Oct 4
New
Oct 11
First Quarter
Oct 18
Full

Hourly Weather History & Observations

Time (PDT) Temp. Dew Point Humidity Pressure Visibility Wind Dir Wind Speed Gust Speed Precip Events Conditions
12:56 AM 61.0 °F 30.0 °F 31% 29.75 in 10.0 mi NNW 4.6 mph - N/A   Clear
1:56 AM 57.0 °F 30.0 °F 36% 29.75 in 10.0 mi NNE 3.5 mph - N/A   Clear
2:56 AM 55.0 °F 28.0 °F 35% 29.75 in 10.0 mi ENE 4.6 mph - N/A   Clear
3:56 AM 54.0 °F 28.0 °F 37% 29.73 in 10.0 mi Variable 5.8 mph - N/A   Clear
4:56 AM 50.0 °F 28.0 °F 43% 29.73 in 10.0 mi NE 3.5 mph - N/A   Clear
5:56 AM 51.1 °F 28.9 °F 43% 29.73 in 10.0 mi Calm Calm - N/A   Clear
6:56 AM 46.9 °F 28.0 °F 48% 29.72 in 10.0 mi Calm Calm - N/A   Clear
7:56 AM 54.0 °F 27.0 °F 35% 29.72 in 10.0 mi Calm Calm - N/A   Clear
8:56 AM 62.1 °F 30.0 °F 30% 29.73 in 10.0 mi North 4.6 mph - N/A   Mostly Cloudy
9:56 AM 66.9 °F 30.0 °F 25% 29.72 in 10.0 mi NNE 5.8 mph - N/A   Mostly Cloudy
10:56 AM 69.1 °F 28.9 °F 22% 29.70 in 10.0 mi NW 4.6 mph - N/A   Mostly Cloudy
11:56 AM 71.1 °F 28.0 °F 20% 29.68 in 10.0 mi Calm Calm - N/A   Overcast
12:56 PM 73.0 °F 26.1 °F 17% 29.66 in 10.0 mi Variable 3.5 mph - N/A   Overcast
1:56 PM 73.0 °F 27.0 °F 18% 29.62 in 10.0 mi SE 5.8 mph - N/A   Overcast
2:56 PM 66.9 °F 36.0 °F 32% 29.65 in 10.0 mi WNW 24.2 mph 31.1 mph N/A   Overcast
3:56 PM 64.0 °F 37.0 °F 37% 29.65 in 10.0 mi WNW 12.7 mph - 0.00 in   Overcast
4:56 PM 61.0 °F 41.0 °F 48% 29.66 in 10.0 mi NW 18.4 mph 25.3 mph 0.00 in Rain Light Rain
5:56 PM 55.9 °F 44.1 °F 64% 29.68 in 10.0 mi North 18.4 mph 28.8 mph 0.00 in   Mostly Cloudy
6:56 PM 53.1 °F 46.0 °F 77% 29.72 in 10.0 mi North 8.1 mph - 0.00 in Rain Light Rain
7:56 PM 52.0 °F 45.0 °F 77% 29.74 in 9.0 mi NNW 8.1 mph - 0.02 in Rain Light Rain
8:56 PM 51.1 °F 46.0 °F 83% 29.76 in 10.0 mi Calm Calm - 0.05 in Rain Light Rain
9:56 PM 50.0 °F 44.1 °F 80% 29.77 in 10.0 mi SW 3.5 mph - 0.03 in Rain Light Rain
10:56 PM 50.0 °F 44.1 °F 80% 29.77 in 10.0 mi SW 4.6 mph - N/A   Scattered Clouds
11:56 PM 48.9 °F 43.0 °F 80% 29.77 in 10.0 mi SW 4.6 mph - N/A   Overcast